This demonstration page uses our WeatherBlox Daily Observations layout. Learn more.

Left ArrowRight Arrow

34.74481, -87.66753

Hourly Observations for July 10, 2019

Temp ( °F °C ) Dew Point ( °F °C ) Humidity (%) Winds ( mph kmh ) Pressure ( in mb ) Visibility ( mi km ) Precip ( " mm )
12:53 am 00:53 Clear 80 26.7 76 24.4 87 87 WNW 3 6 29.95 1014 10 16 0.00 0.00
1:53 am 01:53 Clear 78 25.6 75 23.9 90 90 Calm 29.95 1014 10 16 0.00 0.00
2:53 am 02:53 Clear 77 25 74 23.3 90 90 SE 5 7 29.94 1014 10 16 0.00 0.00
3:53 am 03:53 Clear 77 25 74 23.3 90 90 SSE 3 6 29.95 1014 10 16 0.00 0.00
5:53 am 05:53 Sunny 75 23.9 73 22.8 94 94 E 5 7 29.97 1015 10 16 0.00 0.00
6:53 am 06:53 Sunny 79 26.1 74 23.3 85 85 Calm 29.99 1016 10 16 0.00 0.00
7:53 am 07:53 Sunny 81 27.2 74 23.3 79 79 SE 5 7 30.00 1016 10 16 0.00 0.00
8:53 am 08:53 Sunny 84 28.9 75 23.9 74 74 ESE 3 6 30.01 1016 10 16 0.00 0.00
9:53 am 09:53 Sunny 87 30.6 75 23.9 67 67 SE 6 9 30.01 1016 10 16 0.00 0.00
10:53 am 10:53 Sunny 89 31.7 75 23.9 63 63 SW 5 7 30.01 1016 10 16 0.00 0.00
11:53 am 11:53 Mostly Sunny 92 33.3 75 23.9 58 58 E 6 9 30.00 1016 10 16 0.00 0.00
12:53 pm 12:53 Sunny 94 34.4 74 23.3 52 52 ENE 7 11 29.99 1016 10 16 0.00 0.00
1:53 pm 13:53 Mostly Sunny 93 33.9 74 23.3 54 54 Calm 29.96 1015 10 16 0.00 0.00
2:53 pm 14:53 Sunny 96 35.6 73 22.8 47 47 VRB 5 7 29.93 1014 10 16 0.00 0.00
3:53 pm 15:53 Sunny 95 35 72 22.2 47 47 VRB 3 6 29.91 1013 10 16 0.00 0.00
4:53 pm 16:53 Sunny 93 33.9 74 23.3 54 54 Calm 29.90 1013 10 16 0.00 0.00
5:53 pm 17:53 Sunny 92 33.3 74 23.3 56 56 NNE 3 6 29.92 1013 10 16 0.00 0.00
6:53 pm 18:53 Sunny 90 32.2 76 24.4 63 63 N 3 6 29.92 1013 10 16 0.00 0.00
7:53 pm 19:53 Sunny 87 30.6 79 26.1 77 77 N 6 9 29.92 1013 10 16 0.00 0.00
8:53 pm 20:53 Clear 86 30 78 25.6 77 77 NNW 5 7 29.93 1014 10 16 0.00 0.00
9:53 pm 21:53 Clear 84 28.9 78 25.6 82 82 WNW 7 11 29.96 1014 10 16 0.00 0.00
10:53 pm 22:53 Clear 82 27.8 77 25 85 85 W 6 9 29.95 1014 10 16 0.00 0.00
11:53 pm 23:53 Clear 81 27.2 76 24.4 85 85 W 5 7 29.93 1014 10 16 0.00 0.00

Powered by AerisWeather